SCP
0 0 0 0 0 0 0 0 0 0 0 0 0 0 0 0 0 0 0 0 0 0
0 0 0 0 0 0 0 0 0 0 0 0 0 0 0 0 0 0 0 0 0 0
0 0 0 0 0 0 0 0 0 0 0 0 0 0 0 0 0 0 0 0 0 0
0 0 0 0 0 0 0 0 0 0 0 0 0 0 0 0 0 0 0 0 0 0
0 0 0 0 0 0 0 0 0 0 0 0 0 0 0 0 0 0 0 0 0 0
0 0 0 0 0 0 0 0 0 0 0 0 0 0 0 0 0 0 0 0 0 0
0 0 0 0 0 0 0 0 0 0 0 0 0 0 0 0 0 0 0 0 0 0
0 0 0 0 0 0 0 0 0 0 0 0 0 0 0 0 0 0 0 0 0 0
0 0 0 0 0 0 0 0 0 0 0 0 0 0 0 0 0 0 0 0 0 0
0 0 0 0 0 0 0 0 0 0 0 0 0 0 0 0 0 0 0 0 0 0
0 0 0 0 0 0 0 0 0 0 0 0 0 0 0 0 0 0 0 0 0 0
0 0 0 0 0 0 0 0 0 0 0 0 0 0 0 0 0 0 0 0 0 0
0 0 0 0 0 0 0 0 0 0 0 0 0 0 0 0 0 0 0 0 0 0
0 0 0 0 0 0 0 0 0 0 0 0 0 0 0 0 0 0 0 0 0 0
Wind_Speed_500mb
41 38 37 38 40 42 43 44 48 48 49 50 51 51 51 51 53 49 40 38 41 40
37 34 34 38 40 42 45 46 46 46 46 47 46 45 44 43 39 37 39 34 34 34
36 35 35 37 38 41 44 44 43 42 42 41 40 37 36 36 35 37 34 26 27 19
33 33 35 36 40 41 42 42 42 40 39 37 35 32 30 29 28 29 28 28 28 28
33 35 38 39 42 43 41 42 41 40 38 37 34 32 29 29 24 22 23 25 24 23
34 37 38 40 42 42 43 43 42 40 40 37 34 33 32 31 28 25 22 24 24 24
34 36 36 40 41 41 41 39 38 38 37 35 32 32 31 31 30 28 26 26 25 24
36 38 38 39 37 38 36 37 38 35 35 34 33 31 29 28 27 25 22 22 20 20
36 37 36 35 33 33 35 36 35 33 32 29 29 27 25 23 20 20 20 14 13 11
36 35 33 31 30 30 30 30 29 28 29 26 23 22 21 20 16 14 13 13 11 9
35 34 32 31 29 29 28 27 28 25 27 24 20 18 19 20 17 15 13 13 10 10
37 34 33 30 26 26 26 26 25 23 26 22 20 22 20 17 15 14 14 12 12 13
37 34 31 26 23 24 25 25 25 25 24 25 24 21 19 16 13 13 14 14 15 15
35 33 28 26 26 27 28 28 27 25 26 26 24 22 20 16 15 15 14 14 15 17
Wind_Direction_500mb
230 237 246 257 265 269 268 268 274 276 275 275 275 276 275 275 273 274 271 263 261 262
237 246 257 265 267 266 267 267 272 274 275 276 275 275 274 271 268 265 269 267 263 256
241 253 260 266 268 269 270 272 272 273 276 278 278 276 273 270 266 260 261 256 255 248
248 258 264 268 271 272 273 274 273 273 273 275 275 274 272 271 268 262 255 248 251 252
258 265 271 273 272 273 271 272 271 271 270 270 270 266 263 263 263 261 260 258 256 258
256 263 266 268 270 270 268 268 268 268 268 267 266 263 260 259 257 253 254 255 255 256
260 265 266 266 267 267 266 264 263 263 265 266 263 260 255 254 252 249 248 250 251 252
264 269 270 268 265 261 257 254 259 262 263 263 261 257 252 246 244 244 242 242 245 248
268 271 270 270 264 257 256 257 256 258 262 260 259 251 240 236 230 235 232 226 224 217
267 264 261 265 271 266 260 254 255 259 259 253 246 239 226 220 213 206 204 210 217 244
264 268 267 270 262 257 252 245 245 249 252 230 224 219 201 194 184 197 213 226 235 251
266 264 264 262 256 246 239 235 237 240 235 220 210 204 198 198 195 210 226 238 249 257
261 259 259 254 244 236 229 227 233 235 219 206 202 203 207 212 211 226 240 253 261 268
257 256 252 240 232 229 226 227 228 221 210 207 210 214 219 222 225 236 251 262 269 277
Wind_Speed_850mb
41 38 37 38 40 42 43 44 48 48 49 50 51 51 51 51 53 49 40 38 41 40
37 34 34 38 40 42 45 46 46 46 46 47 46 45 44 43 39 37 39 34 34 34
36 35 35 37 38 41 44 44 43 42 42 41 40 37 36 36 35 37 34 26 27 19
33 33 35 36 40 41 42 42 42 40 39 37 35 32 30 29 28 29 28 28 28 28
33 35 38 39 42 43 41 42 41 40 38 37 34 32 29 29 24 22 23 25 24 23
34 37 38 40 42 42 43 43 42 40 40 37 34 33 32 31 28 25 22 24 24 24
34 36 36 40 41 41 41 39 38 38 37 35 32 32 31 31 30 28 26 26 25 24
36 38 38 39 37 38 36 37 38 35 35 34 33 31 29 28 27 25 22 22 20 20
36 37 36 35 33 33 35 36 35 33 32 29 29 27 25 23 20 20 20 14 13 11
36 35 33 31 30 30 30 30 29 28 29 26 23 22 21 20 16 14 13 13 11 9
35 34 32 31 29 29 28 27 28 25 27 24 20 18 19 20 17 15 13 13 10 10
37 34 33 30 26 26 26 26 25 23 26 22 20 22 20 17 15 14 14 12 12 13
37 34 31 26 23 24 25 25 25 25 24 25 24 21 19 16 13 13 14 14 15 15
35 33 28 26 26 27 28 28 27 25 26 26 24 22 20 16 15 15 14 14 15 17
Wind_Direction_850mb
230 237 246 257 265 269 268 268 274 276 275 275 275 276 275 275 273 274 271 263 261 262
237 246 257 265 267 266 267 267 272 274 275 276 275 275 274 271 268 265 269 267 263 256
241 253 260 266 268 269 270 272 272 273 276 278 278 276 273 270 266 260 261 256 255 248
248 258 264 268 271 272 273 274 273 273 273 275 275 274 272 271 268 262 255 248 251 252
258 265 271 273 272 273 271 272 271 271 270 270 270 266 263 263 263 261 260 258 256 258
256 263 266 268 270 270 268 268 268 268 268 267 266 263 260 259 257 253 254 255 255 256
260 265 266 266 267 267 266 264 263 263 265 266 263 260 255 254 252 249 248 250 251 252
264 269 270 268 265 261 257 254 259 262 263 263 261 257 252 246 244 244 242 242 245 248
268 271 270 270 264 257 256 257 256 258 262 260 259 251 240 236 230 235 232 226 224 217
267 264 261 265 271 266 260 254 255 259 259 253 246 239 226 220 213 206 204 210 217 244
264 268 267 270 262 257 252 245 245 249 252 230 224 219 201 194 184 197 213 226 235 251
266 264 264 262 256 246 239 235 237 240 235 220 210 204 198 198 195 210 226 238 249 257
261 259 259 254 244 236 229 227 233 235 219 206 202 203 207 212 211 226 240 253 261 268
257 256 252 240 232 229 226 227 228 221 210 207 210 214 219 222 225 236 251 262 269 277